User: anonymous   Login
Location: Unspecified
(0.0000°N, 0.0000°E)
Time: 14:34:26
(UTC+00:00)
Language:

USA 247 - Orbit

View from above orbital plane
View from above orbital plane
View from above satellite
View from above satellite

Ground track
Ground track

The orbit data is extracted from the following two-line orbital elements,

1 39462U 13072A   16336.77177358 0.00000000  00000-0  00000-0 0    04
2 39462 122.9997  12.7105 0002000 122.7737 237.2263 13.41418731    00
Epoch (UTC): 01 December 2016 18:31:21
Eccentricity: 0.0002000
inclination: 122.9997°
perigee height: 1102 km
apogee height: 1105 km
right ascension of ascending node: 12.7105°
argument of perigee: 122.7737°
revolutions per day: 13.41418731
mean anomaly at epoch: 237.2263°
orbit number at epoch: 0

The dashed part of the orbit path shows where the satellite is in the earth's shadow,  

DLR